Location: ??????????
(54.7560°N, 39.1389°E)
Time: 05:52:16
(UTC+00:00)

Cosmos 2219 Rocket - Pass Details

Date: 19 May 2025
Orbit: 828 x 844 km, 71.0° (Epoch: 15 June)

Event Time Altitude Azimuth Distance (km) Brightness Sun altitude
Rises 20:37:33 0° 326° (NW) 3,403 6.6 -14.7°
Reaches altitude 10° 20:40:04 10° 331° (NNW) 2,463 5.8 -14.8°
Maximum altitude 20:45:37 55° 49° (NE) 998 2.8 -14.9°
Enters shadow 20:50:56 11° 127° (SE) 2,375 4.1 -15.0°
